Tracking 29777 objects as of 7-Oct-2024
HD Live streaming from Space Station
objects crossing your sky now

CHINASAT-18

Track CHINASAT-18 now!
10-day predictions


NORAD ID: 44493
Int'l Code: 2019-053A
Perigee: 184.8 km
Apogee: 26,253.4 km
Inclination: 28.6 °
Period: 454.8 minutes
Semi major axis: 19590 km
RCS: Unknown
Launch date: August 19, 2019
Source: People's Republic of China (PRC)
Launch site: Xichang Space Center, China (XSC)
Your satellite tracking list
Your tracking list is empty




NASA's NSSDC Master Catalog

Two Line Element Set (TLE):
1 44493U 19053A   24278.26741791  .00015499 -31152-6  37725-3 0  9996
2 44493  28.5612  49.2054 6653513  64.5178 348.3782  3.16627077 48426
Source of the keplerian elements: AFSPC